Year,Month,Day,Hour,Minute,Value (Times are PST for temperature in C)
2017,08,23,00,00,20.80
2017,08,23,00,01,20.80
2017,08,23,00,02,20.80
2017,08,23,00,03,20.80
2017,08,23,00,04,20.80
2017,08,23,00,05,20.80
2017,08,23,00,06,20.70
2017,08,23,00,07,20.70
2017,08,23,00,08,20.70
2017,08,23,00,09,20.70
2017,08,23,00,10,20.60
2017,08,23,00,11,20.60
2017,08,23,00,12,20.60
2017,08,23,00,13,20.50
2017,08,23,00,14,20.50
2017,08,23,00,15,20.40
2017,08,23,00,16,20.40
2017,08,23,00,17,20.40
2017,08,23,00,18,20.30
2017,08,23,00,19,20.30
2017,08,23,00,20,20.30
2017,08,23,00,21,20.30
2017,08,23,00,22,20.20
2017,08,23,00,23,20.20
2017,08,23,00,24,20.20
2017,08,23,00,25,20.20
2017,08,23,00,26,20.20
2017,08,23,00,27,20.20
2017,08,23,00,28,20.20
2017,08,23,00,29,20.20
2017,08,23,00,30,20.20
2017,08,23,00,31,20.10
2017,08,23,00,32,20.10
2017,08,23,00,33,20.10
2017,08,23,00,34,20.10
2017,08,23,00,35,20.10
2017,08,23,00,36,20.10
2017,08,23,00,37,20.00
2017,08,23,00,38,20.00
2017,08,23,00,39,20.00
2017,08,23,00,40,19.90
2017,08,23,00,41,19.90
2017,08,23,00,42,19.80
2017,08,23,00,43,19.80
2017,08,23,00,44,19.70
2017,08,23,00,45,19.70
2017,08,23,00,46,19.60
2017,08,23,00,47,19.60
2017,08,23,00,48,19.60
2017,08,23,00,49,19.50
2017,08,23,00,50,19.50
2017,08,23,00,51,19.40
2017,08,23,00,52,19.40
2017,08,23,00,53,19.30
2017,08,23,00,54,19.30
2017,08,23,00,55,19.30
2017,08,23,00,56,19.30
2017,08,23,00,57,19.20
2017,08,23,00,58,19.20
2017,08,23,00,59,19.20
2017,08,23,01,00,19.20
2017,08,23,01,01,19.20
2017,08,23,01,02,19.20
2017,08,23,01,03,19.20
2017,08,23,01,04,19.20
2017,08,23,01,05,19.20
2017,08,23,01,06,19.20
2017,08,23,01,07,19.20
2017,08,23,01,08,19.30
2017,08,23,01,09,19.30
2017,08,23,01,10,19.30
2017,08,23,01,11,19.30
2017,08,23,01,12,19.30
2017,08,23,01,13,19.30
2017,08,23,01,14,19.30
2017,08,23,01,15,19.30
2017,08,23,01,16,19.20
2017,08,23,01,17,19.20
2017,08,23,01,18,19.20
2017,08,23,01,19,19.20
2017,08,23,01,20,19.20
2017,08,23,01,21,19.20
2017,08,23,01,22,19.20
2017,08,23,01,23,19.20
2017,08,23,01,24,19.20
2017,08,23,01,25,19.20
2017,08,23,01,26,19.20
2017,08,23,01,27,19.20
2017,08,23,01,28,19.10
2017,08,23,01,29,19.10
2017,08,23,01,30,19.10
2017,08,23,01,31,19.10
2017,08,23,01,32,19.10
2017,08,23,01,33,19.00
2017,08,23,01,34,19.00
2017,08,23,01,35,19.00
2017,08,23,01,36,18.90
2017,08,23,01,37,18.90
2017,08,23,01,38,18.90
2017,08,23,01,39,18.90
2017,08,23,01,40,18.90
2017,08,23,01,41,18.90
2017,08,23,01,42,18.80
2017,08,23,01,43,18.80
2017,08,23,01,44,18.80
2017,08,23,01,45,18.80
2017,08,23,01,46,18.80
2017,08,23,01,47,18.80
2017,08,23,01,48,18.80
2017,08,23,01,49,18.70
2017,08,23,01,50,18.70
2017,08,23,01,51,18.70
2017,08,23,01,52,18.70
2017,08,23,01,53,18.60
2017,08,23,01,54,18.60
2017,08,23,01,55,18.60
2017,08,23,01,56,18.50
2017,08,23,01,57,18.50
2017,08,23,01,58,18.40
2017,08,23,01,59,18.40
2017,08,23,02,00,18.30
2017,08,23,02,01,18.30
2017,08,23,02,02,18.30
2017,08,23,02,03,18.20
2017,08,23,02,04,18.20
2017,08,23,02,05,18.20
2017,08,23,02,06,18.10
2017,08,23,02,07,18.10
2017,08,23,02,08,18.00
2017,08,23,02,09,18.00
2017,08,23,02,10,18.00
2017,08,23,02,11,17.90
2017,08,23,02,12,17.90
2017,08,23,02,13,17.90
2017,08,23,02,14,17.90
2017,08,23,02,15,17.90
2017,08,23,02,16,17.90
2017,08,23,02,17,17.80
2017,08,23,02,18,17.80
2017,08,23,02,19,17.80
2017,08,23,02,20,17.80
2017,08,23,02,21,17.80
2017,08,23,02,22,17.80
2017,08,23,02,23,17.80
2017,08,23,02,24,17.80
2017,08,23,02,25,17.80
2017,08,23,02,26,17.80
2017,08,23,02,27,17.80
2017,08,23,02,28,17.70
2017,08,23,02,29,17.70
2017,08,23,02,30,17.70
2017,08,23,02,31,17.70
2017,08,23,02,32,17.70
2017,08,23,02,33,17.60
2017,08,23,02,34,17.60
2017,08,23,02,35,17.60
2017,08,23,02,36,17.60
2017,08,23,02,37,17.50
2017,08,23,02,38,17.50
2017,08,23,02,39,17.50
2017,08,23,02,40,17.40
2017,08,23,02,41,17.40
2017,08,23,02,42,17.40
2017,08,23,02,43,17.30
2017,08,23,02,44,17.30
2017,08,23,02,45,17.30
2017,08,23,02,46,17.20
2017,08,23,02,47,17.20
2017,08,23,02,48,17.20
2017,08,23,02,49,17.10
2017,08,23,02,50,17.10
2017,08,23,02,51,17.10
2017,08,23,02,52,17.10
2017,08,23,02,53,17.10
2017,08,23,02,54,17.00
2017,08,23,02,55,17.00
2017,08,23,02,56,17.00
2017,08,23,02,57,16.90
2017,08,23,02,58,16.90
2017,08,23,02,59,16.90
2017,08,23,03,00,16.90
2017,08,23,03,01,16.90
2017,08,23,03,02,16.80
2017,08,23,03,03,16.80
2017,08,23,03,04,16.80
2017,08,23,03,05,16.80
2017,08,23,03,06,16.80
2017,08,23,03,07,16.80
2017,08,23,03,08,16.80
2017,08,23,03,09,16.80
2017,08,23,03,10,16.80
2017,08,23,03,11,16.80
2017,08,23,03,12,16.70
2017,08,23,03,13,16.70
2017,08,23,03,14,16.70
2017,08,23,03,15,16.70
2017,08,23,03,16,16.70
2017,08,23,03,17,16.70
2017,08,23,03,18,16.70
2017,08,23,03,19,16.70
2017,08,23,03,20,16.70
2017,08,23,03,21,16.70
2017,08,23,03,22,16.70
2017,08,23,03,23,16.70
2017,08,23,03,24,16.70
2017,08,23,03,25,16.80
2017,08,23,03,26,16.80
2017,08,23,03,27,16.80
2017,08,23,03,28,16.80
2017,08,23,03,29,16.80
2017,08,23,03,30,16.80
2017,08,23,03,31,16.80
2017,08,23,03,32,16.80
2017,08,23,03,33,16.80
2017,08,23,03,34,16.80
2017,08,23,03,35,16.80
2017,08,23,03,36,16.80
2017,08,23,03,37,16.80
2017,08,23,03,38,16.80
2017,08,23,03,39,16.80
2017,08,23,03,40,16.80
2017,08,23,03,41,16.80
2017,08,23,03,42,16.80
2017,08,23,03,43,16.80
2017,08,23,03,44,16.80
2017,08,23,03,45,16.80
2017,08,23,03,46,16.80
2017,08,23,03,47,16.80
2017,08,23,03,48,16.80
2017,08,23,03,49,16.80
2017,08,23,03,50,16.80
2017,08,23,03,51,16.80
2017,08,23,03,52,16.80
2017,08,23,03,53,16.80
2017,08,23,03,54,16.70
2017,08,23,03,55,16.70
2017,08,23,03,56,16.70
2017,08,23,03,57,16.70
2017,08,23,03,58,16.70
2017,08,23,03,59,16.70
2017,08,23,04,00,16.70
2017,08,23,04,01,16.70
2017,08,23,04,02,16.70
2017,08,23,04,03,16.70
2017,08,23,04,04,16.70
2017,08,23,04,05,16.70
2017,08,23,04,06,16.60
2017,08,23,04,07,16.60
2017,08,23,04,08,16.60
2017,08,23,04,09,16.60
2017,08,23,04,10,16.60
2017,08,23,04,11,16.60
2017,08,23,04,12,16.60
2017,08,23,04,13,16.60
2017,08,23,04,14,16.60
2017,08,23,04,15,16.60
2017,08,23,04,16,16.60
2017,08,23,04,17,16.60
2017,08,23,04,18,16.70
2017,08,23,04,19,16.70
2017,08,23,04,20,16.70
2017,08,23,04,21,16.70
2017,08,23,04,22,16.70
2017,08,23,04,23,16.70
2017,08,23,04,24,16.70
2017,08,23,04,25,16.70
2017,08,23,04,26,16.70
2017,08,23,04,27,16.70
2017,08,23,04,28,16.70
2017,08,23,04,29,16.70
2017,08,23,04,30,16.70
2017,08,23,04,31,16.70
2017,08,23,04,32,16.70
2017,08,23,04,33,16.70
2017,08,23,04,34,16.60
2017,08,23,04,35,16.60
2017,08,23,04,36,16.60
2017,08,23,04,37,16.60
2017,08,23,04,38,16.60
2017,08,23,04,39,16.50
2017,08,23,04,40,16.50
2017,08,23,04,41,16.50
2017,08,23,04,42,16.50
2017,08,23,04,43,16.40
2017,08,23,04,44,16.40
2017,08,23,04,45,16.40
2017,08,23,04,46,16.40
2017,08,23,04,47,16.40
2017,08,23,04,48,16.40
2017,08,23,04,49,16.40
2017,08,23,04,50,16.40
2017,08,23,04,51,16.40
2017,08,23,04,52,16.30
2017,08,23,04,53,16.30
2017,08,23,04,54,16.30
2017,08,23,04,55,16.30
2017,08,23,04,56,16.30
2017,08,23,04,57,16.30
2017,08,23,04,58,16.30
2017,08,23,04,59,16.30
2017,08,23,05,00,16.30
2017,08,23,05,01,16.30
2017,08,23,05,02,16.20
2017,08,23,05,03,16.20
2017,08,23,05,04,16.10
2017,08,23,05,05,16.10
2017,08,23,05,06,16.10
2017,08,23,05,07,16.00
2017,08,23,05,08,16.00
2017,08,23,05,09,16.00
2017,08,23,05,10,15.90
2017,08,23,05,11,15.90
2017,08,23,05,12,15.90
2017,08,23,05,13,15.80
2017,08,23,05,14,15.80
2017,08,23,05,15,15.80
2017,08,23,05,16,15.80
2017,08,23,05,17,15.80
2017,08,23,05,18,15.80
2017,08,23,05,19,15.80
2017,08,23,05,20,15.80
2017,08,23,05,21,15.80
2017,08,23,05,22,15.80
2017,08,23,05,23,15.80
2017,08,23,05,24,15.80
2017,08,23,05,25,15.80
2017,08,23,05,26,15.80
2017,08,23,05,27,15.80
2017,08,23,05,28,15.80
2017,08,23,05,29,15.80
2017,08,23,05,30,15.80
2017,08,23,05,31,15.80
2017,08,23,05,32,15.80
2017,08,23,05,33,15.70
2017,08,23,05,34,15.70
2017,08,23,05,35,15.70
2017,08,23,05,36,15.70
2017,08,23,05,37,15.70
2017,08,23,05,38,15.70
2017,08,23,05,39,15.70
2017,08,23,05,40,15.60
2017,08,23,05,41,15.60
2017,08,23,05,42,15.60
2017,08,23,05,43,15.50
2017,08,23,05,44,15.50
2017,08,23,05,45,15.50
2017,08,23,05,46,15.50
2017,08,23,05,47,15.50
2017,08,23,05,48,15.40
2017,08,23,05,49,15.40
2017,08,23,05,50,15.40
2017,08,23,05,51,15.40
2017,08,23,05,52,15.40
2017,08,23,05,53,15.30
2017,08,23,05,54,15.30
2017,08,23,05,55,15.30
2017,08,23,05,56,15.20
2017,08,23,05,57,15.20
2017,08,23,05,58,15.10
2017,08,23,05,59,15.00
2017,08,23,06,00,15.00
2017,08,23,06,01,15.00
2017,08,23,06,02,15.00
2017,08,23,06,03,15.00
2017,08,23,06,04,15.00
2017,08,23,06,05,15.00
2017,08,23,06,06,15.00
2017,08,23,06,07,15.00
2017,08,23,06,08,15.00
2017,08,23,06,09,15.00
2017,08,23,06,10,15.00
2017,08,23,06,11,14.90
2017,08,23,06,12,14.90
2017,08,23,06,13,14.80
2017,08,23,06,14,14.80
2017,08,23,06,15,14.80
2017,08,23,06,16,14.70
2017,08,23,06,17,14.70
2017,08,23,06,18,14.70
2017,08,23,06,19,14.70
2017,08,23,06,20,14.60
2017,08,23,06,21,14.60
2017,08,23,06,22,14.60
2017,08,23,06,23,14.60
2017,08,23,06,24,14.60
2017,08,23,06,25,14.60
2017,08,23,06,26,14.60
2017,08,23,06,27,14.50
2017,08,23,06,28,14.50
2017,08,23,06,29,14.50
2017,08,23,06,30,14.50
2017,08,23,06,31,14.50
2017,08,23,06,32,14.50
2017,08,23,06,33,14.50
2017,08,23,06,34,14.50
2017,08,23,06,35,14.50
2017,08,23,06,36,14.50
2017,08,23,06,37,14.40
2017,08,23,06,38,14.40
2017,08,23,06,39,14.40
2017,08,23,06,40,14.40
2017,08,23,06,41,14.40
2017,08,23,06,42,14.40
2017,08,23,06,43,14.40
2017,08,23,06,44,14.40
2017,08,23,06,45,14.40
2017,08,23,06,46,14.40
2017,08,23,06,47,14.50
2017,08,23,06,48,14.50
2017,08,23,06,49,14.50
2017,08,23,06,50,14.60
2017,08,23,06,51,14.60
2017,08,23,06,52,14.60
2017,08,23,06,53,14.60
2017,08,23,06,54,14.70
2017,08,23,06,55,14.70
2017,08,23,06,56,14.70
2017,08,23,06,57,14.70
2017,08,23,06,58,14.80
2017,08,23,06,59,14.80
2017,08,23,07,00,14.90
2017,08,23,07,01,15.00
2017,08,23,07,02,15.00
2017,08,23,07,03,15.00
2017,08,23,07,04,15.00
2017,08,23,07,05,15.00
2017,08,23,07,06,15.00
2017,08,23,07,07,15.00
2017,08,23,07,08,15.00
2017,08,23,07,09,15.00
2017,08,23,07,10,15.00
2017,08,23,07,11,15.00
2017,08,23,07,12,15.00
2017,08,23,07,13,15.00
2017,08,23,07,14,15.00
2017,08,23,07,15,15.00
2017,08,23,07,16,15.00
2017,08,23,07,17,15.00
2017,08,23,07,18,15.00
2017,08,23,07,19,15.00
2017,08,23,07,20,15.10
2017,08,23,07,21,15.20
2017,08,23,07,22,15.30
2017,08,23,07,23,15.30
2017,08,23,07,24,15.30
2017,08,23,07,25,15.30
2017,08,23,07,26,15.40
2017,08,23,07,27,15.40
2017,08,23,07,28,15.40
2017,08,23,07,29,15.50
2017,08,23,07,30,15.50
2017,08,23,07,31,15.50
2017,08,23,07,32,15.60
2017,08,23,07,33,15.60
2017,08,23,07,34,15.60
2017,08,23,07,35,15.60
2017,08,23,07,36,15.60
2017,08,23,07,37,15.70
2017,08,23,07,38,15.70
2017,08,23,07,39,15.70
2017,08,23,07,40,15.70
2017,08,23,07,41,15.70
2017,08,23,07,42,15.70
2017,08,23,07,43,15.70
2017,08,23,07,44,15.70
2017,08,23,07,45,15.80
2017,08,23,07,46,15.80
2017,08,23,07,47,15.80
2017,08,23,07,48,15.80
2017,08,23,07,49,15.80
2017,08,23,07,50,15.90
2017,08,23,07,51,15.90
2017,08,23,07,52,15.90
2017,08,23,07,53,15.90
2017,08,23,07,54,16.00
2017,08,23,07,55,16.00
2017,08,23,07,56,16.10
2017,08,23,07,57,16.10
2017,08,23,07,58,16.10
2017,08,23,07,59,16.20
2017,08,23,08,00,16.20
2017,08,23,08,01,16.20
2017,08,23,08,02,16.20
2017,08,23,08,03,16.30
2017,08,23,08,04,16.30
2017,08,23,08,05,16.30
2017,08,23,08,06,16.40
2017,08,23,08,07,16.40
2017,08,23,08,08,16.40
2017,08,23,08,09,16.50
2017,08,23,08,10,16.50
2017,08,23,08,11,16.60
2017,08,23,08,12,16.60
2017,08,23,08,13,16.60
2017,08,23,08,14,16.70
2017,08,23,08,15,16.70
2017,08,23,08,16,16.70
2017,08,23,08,17,16.80
2017,08,23,08,18,16.80
2017,08,23,08,19,16.80
2017,08,23,08,20,16.90
2017,08,23,08,21,16.90
2017,08,23,08,22,17.00
2017,08,23,08,23,17.00
2017,08,23,08,24,17.10
2017,08,23,08,25,17.10
2017,08,23,08,26,17.20
2017,08,23,08,27,17.20
2017,08,23,08,28,17.30
2017,08,23,08,29,17.30
2017,08,23,08,30,17.40
2017,08,23,08,31,17.40
2017,08,23,08,32,17.50
2017,08,23,08,33,17.50
2017,08,23,08,34,17.60
2017,08,23,08,35,17.60
2017,08,23,08,36,17.70
2017,08,23,08,37,17.70
2017,08,23,08,38,17.80
2017,08,23,08,39,17.80
2017,08,23,08,40,17.90
2017,08,23,08,41,17.90
2017,08,23,08,42,18.00
2017,08,23,08,43,18.00
2017,08,23,08,44,18.10
2017,08,23,08,45,18.10
2017,08,23,08,46,18.20
2017,08,23,08,47,18.20
2017,08,23,08,48,18.20
2017,08,23,08,49,18.30
2017,08,23,08,50,18.30
2017,08,23,08,51,18.30
2017,08,23,08,52,18.30
2017,08,23,08,53,18.40
2017,08,23,08,54,18.40
2017,08,23,08,55,18.40
2017,08,23,08,56,18.40
2017,08,23,08,57,18.40
2017,08,23,08,58,18.40
2017,08,23,08,59,18.40
2017,08,23,09,00,18.50
2017,08,23,09,01,18.50
2017,08,23,09,02,18.50
2017,08,23,09,03,18.40
2017,08,23,09,04,18.40
2017,08,23,09,05,18.40
2017,08,23,09,06,18.40
2017,08,23,09,07,18.40
2017,08,23,09,08,18.40
2017,08,23,09,09,18.40
2017,08,23,09,10,18.40
2017,08,23,09,11,18.50
2017,08,23,09,12,18.50
2017,08,23,09,13,18.50
2017,08,23,09,14,18.50
2017,08,23,09,15,18.60
2017,08,23,09,16,18.60
2017,08,23,09,17,18.60
2017,08,23,09,18,18.60
2017,08,23,09,19,18.70
2017,08,23,09,20,18.70
2017,08,23,09,21,18.70
2017,08,23,09,22,18.70
2017,08,23,09,23,18.80
2017,08,23,09,24,18.80
2017,08,23,09,25,18.80
2017,08,23,09,26,18.80
2017,08,23,09,27,18.80
2017,08,23,09,28,18.80
2017,08,23,09,29,18.90
2017,08,23,09,30,18.90
2017,08,23,09,31,18.90
2017,08,23,09,32,18.90
2017,08,23,09,33,18.90
2017,08,23,09,34,18.90
2017,08,23,09,35,18.90
2017,08,23,09,36,18.90
2017,08,23,09,37,18.90
2017,08,23,09,38,18.90
2017,08,23,09,39,19.00
2017,08,23,09,40,19.00
2017,08,23,09,41,19.00
2017,08,23,09,42,19.00
2017,08,23,09,43,19.10
2017,08,23,09,44,19.10
2017,08,23,09,45,19.10
2017,08,23,09,46,19.10
2017,08,23,09,47,19.00
2017,08,23,09,48,19.00
2017,08,23,09,49,19.00
2017,08,23,09,50,19.00
2017,08,23,09,51,19.10
2017,08,23,09,52,19.10
2017,08,23,09,53,19.10
2017,08,23,09,54,19.10
2017,08,23,09,55,19.10
2017,08,23,09,56,19.10
2017,08,23,09,57,19.10
2017,08,23,09,58,19.20
2017,08,23,09,59,19.20
2017,08,23,10,00,19.20
2017,08,23,10,01,19.30
2017,08,23,10,02,19.30
2017,08,23,10,03,19.30
2017,08,23,10,04,19.40
2017,08,23,10,05,19.40
2017,08,23,10,06,19.40
2017,08,23,10,07,19.40
2017,08,23,10,08,19.50
2017,08,23,10,09,19.50
2017,08,23,10,10,19.50
2017,08,23,10,11,19.60
2017,08,23,10,12,19.60
2017,08,23,10,13,19.60
2017,08,23,10,14,19.60
2017,08,23,10,15,19.70
2017,08,23,10,16,19.70
2017,08,23,10,17,19.70
2017,08,23,10,18,19.70
2017,08,23,10,19,19.70
2017,08,23,10,20,19.70
2017,08,23,10,21,19.70
2017,08,23,10,22,19.70
2017,08,23,10,23,19.70
2017,08,23,10,24,19.70
2017,08,23,10,25,19.70
2017,08,23,10,26,19.70
2017,08,23,10,27,19.70
2017,08,23,10,28,19.80
2017,08,23,10,29,19.80
2017,08,23,10,30,19.80
2017,08,23,10,31,19.80
2017,08,23,10,32,19.80
2017,08,23,10,33,19.80
2017,08,23,10,34,19.90
2017,08,23,10,35,19.90
2017,08,23,10,36,19.90
2017,08,23,10,37,20.00
2017,08,23,10,38,20.00
2017,08,23,10,39,20.10
2017,08,23,10,40,20.20
2017,08,23,10,41,20.20
2017,08,23,10,42,20.30
2017,08,23,10,43,20.40
2017,08,23,10,44,20.50
2017,08,23,10,45,20.50
2017,08,23,10,46,20.60
2017,08,23,10,47,20.60
2017,08,23,10,48,20.60
2017,08,23,10,49,20.60
2017,08,23,10,50,20.60
2017,08,23,10,51,20.60
2017,08,23,10,52,20.60
2017,08,23,10,53,20.70
2017,08,23,10,54,20.70
2017,08,23,10,55,20.80
2017,08,23,10,56,20.80
2017,08,23,10,57,20.90
2017,08,23,10,58,21.00
2017,08,23,10,59,21.10
2017,08,23,11,00,21.20
2017,08,23,11,01,21.20
2017,08,23,11,02,21.30
2017,08,23,11,03,21.40
2017,08,23,11,04,21.40
2017,08,23,11,05,21.50
2017,08,23,11,06,21.60
2017,08,23,11,07,21.60
2017,08,23,11,08,21.70
2017,08,23,11,09,21.80
2017,08,23,11,10,21.80
2017,08,23,11,11,21.90
2017,08,23,11,12,21.90
2017,08,23,11,13,21.80
2017,08,23,11,14,21.70
2017,08,23,11,15,21.60
2017,08,23,11,16,21.50
2017,08,23,11,17,21.40
2017,08,23,11,18,21.30
2017,08,23,11,19,21.30
2017,08,23,11,20,21.30
2017,08,23,11,21,21.30
2017,08,23,11,22,21.40
2017,08,23,11,23,21.40
2017,08,23,11,24,21.40
2017,08,23,11,25,21.40
2017,08,23,11,26,21.50
2017,08,23,11,27,21.60
2017,08,23,11,28,21.60
2017,08,23,11,29,21.70
2017,08,23,11,30,21.80
2017,08,23,11,31,21.90
2017,08,23,11,32,22.00
2017,08,23,11,33,22.10
2017,08,23,11,34,22.10
2017,08,23,11,35,22.20
2017,08,23,11,36,22.30
2017,08,23,11,37,22.30
2017,08,23,11,38,22.40
2017,08,23,11,39,22.50
2017,08,23,11,40,22.50
2017,08,23,11,41,22.60
2017,08,23,11,42,22.60
2017,08,23,11,43,22.60
2017,08,23,11,44,22.60
2017,08,23,11,45,22.60
2017,08,23,11,46,22.60
2017,08,23,11,47,22.60
2017,08,23,11,48,22.60
2017,08,23,11,49,22.60
2017,08,23,11,50,22.50
2017,08,23,11,51,22.50
2017,08,23,11,52,22.50
2017,08,23,11,53,22.50
2017,08,23,11,54,22.50
2017,08,23,11,55,22.50
2017,08,23,11,56,22.60
2017,08,23,11,57,22.60
2017,08,23,11,58,22.70
2017,08,23,11,59,22.70
2017,08,23,12,00,22.60
2017,08,23,12,01,22.50
2017,08,23,12,02,22.40
2017,08,23,12,03,22.30
2017,08,23,12,04,22.30
2017,08,23,12,05,22.20
2017,08,23,12,06,22.10
2017,08,23,12,07,22.00
2017,08,23,12,08,21.80
2017,08,23,12,09,21.80
2017,08,23,12,10,21.80
2017,08,23,12,11,21.70
2017,08,23,12,12,21.70
2017,08,23,12,13,21.70
2017,08,23,12,14,21.60
2017,08,23,12,15,21.50
2017,08,23,12,16,21.50
2017,08,23,12,17,21.40
2017,08,23,12,18,21.40
2017,08,23,12,19,21.40
2017,08,23,12,20,21.40
2017,08,23,12,21,21.40
2017,08,23,12,22,21.40
2017,08,23,12,23,21.50
2017,08,23,12,24,21.50
2017,08,23,12,25,21.50
2017,08,23,12,26,21.40
2017,08,23,12,27,21.40
2017,08,23,12,28,21.30
2017,08,23,12,29,21.20
2017,08,23,12,30,21.10
2017,08,23,12,31,21.10
2017,08,23,12,32,21.00
2017,08,23,12,33,21.00
2017,08,23,12,34,21.00
2017,08,23,12,35,21.00
2017,08,23,12,36,21.00
2017,08,23,12,37,20.90
2017,08,23,12,38,20.90
2017,08,23,12,39,21.00
2017,08,23,12,40,21.00
2017,08,23,12,41,21.10
2017,08,23,12,42,21.10
2017,08,23,12,43,21.20
2017,08,23,12,44,21.20
2017,08,23,12,45,21.20
2017,08,23,12,46,21.20
2017,08,23,12,47,21.10
2017,08,23,12,48,21.10
2017,08,23,12,49,21.10
2017,08,23,12,50,21.00
2017,08,23,12,51,21.00
2017,08,23,12,52,21.00
2017,08,23,12,53,21.00
2017,08,23,12,54,21.00
2017,08,23,12,55,21.10
2017,08,23,12,56,21.10
2017,08,23,12,57,21.20
2017,08,23,12,58,21.30
2017,08,23,12,59,21.30
2017,08,23,13,00,21.40
2017,08,23,13,01,21.50
2017,08,23,13,02,21.60
2017,08,23,13,03,21.60
2017,08,23,13,04,21.60
2017,08,23,13,05,21.60
2017,08,23,13,06,21.60
2017,08,23,13,07,21.60
2017,08,23,13,08,21.60
2017,08,23,13,09,21.50
2017,08,23,13,10,21.40
2017,08,23,13,11,21.40
2017,08,23,13,12,21.30
2017,08,23,13,13,21.30
2017,08,23,13,14,21.30
2017,08,23,13,15,21.30
2017,08,23,13,16,21.40
2017,08,23,13,17,21.40
2017,08,23,13,18,21.50
2017,08,23,13,19,21.60
2017,08,23,13,20,21.70
2017,08,23,13,21,21.80
2017,08,23,13,22,21.80
2017,08,23,13,23,21.90
2017,08,23,13,24,22.00
2017,08,23,13,25,22.10
2017,08,23,13,26,22.10
2017,08,23,13,27,22.10
2017,08,23,13,28,22.00
2017,08,23,13,29,21.90
2017,08,23,13,30,21.80
2017,08,23,13,31,21.80
2017,08,23,13,32,21.80
2017,08,23,13,33,21.90
2017,08,23,13,34,22.00
2017,08,23,13,35,22.10
2017,08,23,13,36,22.20
2017,08,23,13,37,22.30
2017,08,23,13,38,22.50
2017,08,23,13,39,22.70
2017,08,23,13,40,22.80
2017,08,23,13,41,23.00
2017,08,23,13,42,23.20
2017,08,23,13,43,23.30
2017,08,23,13,44,23.40
2017,08,23,13,45,23.50
2017,08,23,13,46,23.60
2017,08,23,13,47,23.70
2017,08,23,13,48,23.70
2017,08,23,13,49,23.80
2017,08,23,13,50,23.80
2017,08,23,13,51,23.90
2017,08,23,13,52,24.00
2017,08,23,13,53,24.00
2017,08,23,13,54,24.10
2017,08,23,13,55,24.00
2017,08,23,13,56,23.90
2017,08,23,13,57,23.80
2017,08,23,13,58,23.80
2017,08,23,13,59,23.80
2017,08,23,14,00,23.70
2017,08,23,14,01,23.80
2017,08,23,14,02,23.80
2017,08,23,14,03,23.80
2017,08,23,14,04,23.80
2017,08,23,14,05,23.80
2017,08,23,14,06,23.90
2017,08,23,14,07,23.90
2017,08,23,14,08,23.90
2017,08,23,14,09,23.90
2017,08,23,14,10,23.90
2017,08,23,14,11,24.00
2017,08,23,14,12,24.00
2017,08,23,14,13,24.10
2017,08,23,14,14,24.20
2017,08,23,14,15,24.20
2017,08,23,14,16,24.30
2017,08,23,14,17,24.30
2017,08,23,14,18,24.30
2017,08,23,14,19,24.40
2017,08,23,14,20,24.40
2017,08,23,14,21,24.40
2017,08,23,14,22,24.40
2017,08,23,14,23,24.40
2017,08,23,14,24,24.30
2017,08,23,14,25,24.30
2017,08,23,14,26,24.30
2017,08,23,14,27,24.20
2017,08,23,14,28,24.10
2017,08,23,14,29,23.90
2017,08,23,14,30,23.80
2017,08,23,14,31,23.70
2017,08,23,14,32,23.70
2017,08,23,14,33,23.70
2017,08,23,14,34,23.80
2017,08,23,14,35,23.80
2017,08,23,14,36,23.80
2017,08,23,14,37,23.80
2017,08,23,14,38,23.70
2017,08,23,14,39,23.70
2017,08,23,14,40,23.70
2017,08,23,14,41,23.70
2017,08,23,14,42,23.70
2017,08,23,14,43,23.70
2017,08,23,14,44,23.70
2017,08,23,14,45,23.70
2017,08,23,14,46,23.60
2017,08,23,14,47,23.60
2017,08,23,14,48,23.60
2017,08,23,14,49,23.60
2017,08,23,14,50,23.60
2017,08,23,14,51,23.60
2017,08,23,14,52,23.60
2017,08,23,14,53,23.60
2017,08,23,14,54,23.70
2017,08,23,14,55,23.80
2017,08,23,14,56,23.90
2017,08,23,14,57,24.00
2017,08,23,14,58,24.10
2017,08,23,14,59,24.10
2017,08,23,15,00,24.20
2017,08,23,15,01,24.30
2017,08,23,15,02,24.40
2017,08,23,15,03,24.50
2017,08,23,15,04,24.50
2017,08,23,15,05,24.60
2017,08,23,15,06,24.60
2017,08,23,15,07,24.70
2017,08,23,15,08,24.70
2017,08,23,15,09,24.70
2017,08,23,15,10,24.70
2017,08,23,15,11,24.70
2017,08,23,15,12,24.70
2017,08,23,15,13,24.70
2017,08,23,15,14,24.70
2017,08,23,15,15,24.80
2017,08,23,15,16,24.80
2017,08,23,15,17,24.80
2017,08,23,15,18,24.90
2017,08,23,15,19,24.90
2017,08,23,15,20,25.00
2017,08,23,15,21,25.00
2017,08,23,15,22,25.00
2017,08,23,15,23,25.10
2017,08,23,15,24,25.00
2017,08,23,15,25,25.00
2017,08,23,15,26,24.90
2017,08,23,15,27,24.90
2017,08,23,15,28,24.80
2017,08,23,15,29,24.80
2017,08,23,15,30,24.70
2017,08,23,15,31,24.70
2017,08,23,15,32,24.70
2017,08,23,15,33,24.70
2017,08,23,15,34,24.70
2017,08,23,15,35,24.70
2017,08,23,15,36,24.60
2017,08,23,15,37,24.60
2017,08,23,15,38,24.50
2017,08,23,15,39,24.50
2017,08,23,15,40,24.40
2017,08,23,15,41,24.40
2017,08,23,15,42,24.30
2017,08,23,15,43,24.30
2017,08,23,15,44,24.30
2017,08,23,15,45,24.30
2017,08,23,15,46,24.30
2017,08,23,15,47,24.30
2017,08,23,15,48,24.30
2017,08,23,15,49,24.40
2017,08,23,15,50,24.40
2017,08,23,15,51,24.40
2017,08,23,15,52,24.40
2017,08,23,15,53,24.40
2017,08,23,15,54,24.50
2017,08,23,15,55,24.50
2017,08,23,15,56,24.50
2017,08,23,15,57,24.60
2017,08,23,15,58,24.60
2017,08,23,15,59,24.60
2017,08,23,16,00,24.60
2017,08,23,16,01,24.60
2017,08,23,16,02,24.60
2017,08,23,16,03,24.50
2017,08,23,16,04,24.40
2017,08,23,16,05,24.30
2017,08,23,16,06,24.30
2017,08,23,16,07,24.30
2017,08,23,16,08,24.30
2017,08,23,16,09,24.30
2017,08,23,16,10,24.30
2017,08,23,16,11,24.30
2017,08,23,16,12,24.30
2017,08,23,16,13,24.30
2017,08,23,16,14,24.30
2017,08,23,16,15,24.30
2017,08,23,16,16,24.30
2017,08,23,16,17,24.20
2017,08,23,16,18,24.10
2017,08,23,16,19,24.00
2017,08,23,16,20,24.00
2017,08,23,16,21,23.90
2017,08,23,16,22,23.80
2017,08,23,16,23,23.80
2017,08,23,16,24,23.70
2017,08,23,16,25,23.70
2017,08,23,16,26,23.70
2017,08,23,16,27,23.70
2017,08,23,16,28,23.80
2017,08,23,16,29,23.80
2017,08,23,16,30,23.90
2017,08,23,16,31,23.90
2017,08,23,16,32,24.00
2017,08,23,16,33,24.00
2017,08,23,16,34,24.00
2017,08,23,16,35,24.10
2017,08,23,16,36,24.10
2017,08,23,16,37,24.10
2017,08,23,16,38,24.10
2017,08,23,16,39,24.10
2017,08,23,16,40,24.00
2017,08,23,16,41,24.00
2017,08,23,16,42,23.90
2017,08,23,16,43,23.90
2017,08,23,16,44,23.80
2017,08,23,16,45,23.80
2017,08,23,16,46,23.80
2017,08,23,16,47,23.80
2017,08,23,16,48,23.80
2017,08,23,16,49,23.80
2017,08,23,16,50,23.80
2017,08,23,16,51,23.90
2017,08,23,16,52,23.90
2017,08,23,16,53,23.90
2017,08,23,16,54,24.00
2017,08,23,16,55,24.10
2017,08,23,16,56,24.10
2017,08,23,16,57,24.20
2017,08,23,16,58,24.20
2017,08,23,16,59,24.30
2017,08,23,17,00,24.30
2017,08,23,17,01,24.30
2017,08,23,17,02,24.30
2017,08,23,17,03,24.30
2017,08,23,17,04,24.30
2017,08,23,17,05,24.30
2017,08,23,17,06,24.30
2017,08,23,17,07,24.30
2017,08,23,17,08,24.20
2017,08,23,17,09,24.20
2017,08,23,17,10,24.20
2017,08,23,17,11,24.20
2017,08,23,17,12,24.10
2017,08,23,17,13,24.10
2017,08,23,17,14,24.10
2017,08,23,17,15,24.10
2017,08,23,17,16,24.10
2017,08,23,17,17,24.10
2017,08,23,17,18,24.10
2017,08,23,17,19,24.20